Location: Elmsmere
(40.9284°N, 73.8207°W)
Time: 21:57:48
(UTC+00:00)

STARLINK-2646 - Pass Details

Date: 26 June 2021
Orbit: 546 x 548 km, 53.1° (Epoch: 31 July)

Event Time Altitude Azimuth Distance (km) Brightness Sun altitude
Exits shadow 06:44:01 41° 135° (SE) 794 4.2 -21.2°
Maximum altitude 06:44:02 41° 134° (SE) 794 4.2 -21.2°
Drops below altitude 10° 06:47:56 10° 64° (ENE) 1,819 7.0 -20.9°
Sets 06:50:15 0° 57° (ENE) 2,716 8.2 -20.7°
